Date String (YYYY-MM-DD hh:mm:ss) UTC,Instrument flags,absolute air pressure of the measurement (hPa),sample flow rate (lpm),inlet stack bypass flow (lpm),air temperature of the measurement (°C),ambient temperature measured by the external sensor (°C),aerosol sample conditioner tube jacket temperature (°C),OPC LED temperature (°C),internal box temperature (°C),relative humidity of the measurement (%),span deviation,mass concentration of particles derived from Lorenz-Mie calculation of OPC scattering (μg/m³),mass concentration of particles derived from Lorenz-Mie calculation of OPC scattering (μg/m³),mass concentration of particles derived from Lorenz-Mie calculation of OPC scattering (μg/m³)
DateTimeUTC,F1_M11,P_M11,Q1_M11,Q2_M11,T1_M11,T2_M11,T3_M11,T4_M11,T5_M11,U1_M11,ZSPAN_M11,X0_M11,X2_M11,X1_M11
2024-01-02 12:00:00,SystemResetWarning,0833.2,5.00,000.00,022.5,021.5,000.0,030.8,023.8,12.9,0000.0,0007.02,0003.84,0003.42
2024-01-02 12:01:00,SystemResetWarning,0833.2,5.00,000.00,022.5,021.5,000.0,030.8,023.8,12.9,0000.0,0007.00,0003.87,0003.44
2024-01-02 12:02:00,SystemResetWarning,0833.2,4.99,000.00,022.5,021.4,000.0,030.8,023.8,12.9,0000.0,0007.27,0003.92,0003.48
2024-01-02 12:03:00,SystemResetWarning,0833.3,5.00,000.00,022.5,021.4,000.0,030.8,023.8,12.9,0000.0,0008.07,0003.96,0003.51
2024-01-02 12:04:00,SystemResetWarning,0833.3,5.00,000.00,022.4,021.4,000.0,030.8,023.8,12.9,0000.0,0008.30,0004.00,0003.53
2024-01-02 12:05:00,SystemResetWarning,0833.3,5.00,000.00,022.4,021.4,000.0,030.8,023.8,12.9,0000.0,0008.18,0004.01,0003.55
2024-01-02 12:06:00,SystemResetWarning,0833.2,4.99,000.00,022.4,021.4,000.0,030.8,023.8,12.9,0000.0,0008.23,0004.03,0003.56
2024-01-02 12:07:00,SystemResetWarning,0833.2,5.00,000.00,022.4,021.4,000.0,030.8,023.8,12.9,0000.0,0008.74,0004.04,0003.57
2024-01-02 12:08:00,SystemResetWarning,0833.3,5.00,000.00,022.4,021.4,000.0,030.8,023.8,12.9,0000.0,0008.89,0004.03,0003.58
2024-01-02 12:09:00,SystemResetWarning,0833.3,5.00,000.00,022.4,021.4,000.0,030.8,023.8,12.9,0000.0,0008.82,0004.02,0003.60
2024-01-02 12:10:00,SystemResetWarning,0833.2,5.01,000.00,022.4,021.4,000.0,030.8,023.8,12.9,0000.0,0008.80,0004.03,0003.61
2024-01-02 12:11:00,SystemResetWarning,0833.3,5.00,000.00,022.4,021.4,000.0,030.8,023.8,12.9,0000.0,0008.84,0004.04,0003.63
2024-01-02 12:12:00,SystemResetWarning,0833.3,5.00,000.00,022.4,021.3,000.0,030.8,023.8,12.9,0000.0,0008.83,0004.04,0003.63
2024-01-02 12:13:00,SystemResetWarning,0833.2,5.01,000.00,022.4,021.3,000.0,030.7,023.8,12.9,0000.0,0008.81,0004.02,0003.62
2024-01-02 12:14:00,SystemResetWarning,0833.3,5.01,000.00,022.4,021.3,000.0,030.7,023.8,12.9,0000.0,0008.69,0004.00,0003.60
2024-01-02 12:15:00,SystemResetWarning,0833.3,5.00,000.00,022.4,021.3,000.0,030.7,023.7,12.9,0000.0,0008.18,0003.97,0003.60
2024-01-02 12:16:00,SystemResetWarning,0833.3,5.00,000.00,022.4,021.3,000.0,030.7,023.7,12.9,0000.0,0008.34,0003.97,0003.60
2024-01-02 12:17:00,SystemResetWarning,0833.3,5.00,000.00,022.4,021.3,000.0,030.7,023.7,12.9,0000.0,0008.79,0003.97,0003.59
2024-01-02 12:18:00,SystemResetWarning,0833.3,4.99,000.00,022.3,021.3,000.0,030.7,023.7,12.9,0000.0,0008.45,0003.94,0003.57
2024-01-02 12:19:00,SystemResetWarning,0833.3,5.00,000.00,022.3,021.3,000.0,030.7,023.7,12.9,0000.0,0008.12,0003.90,0003.55
2024-01-02 12:20:00,SystemResetWarning,0833.3,4.99,000.00,022.3,021.3,000.0,030.7,023.7,12.9,0000.0,0008.38,0003.86,0003.53
2024-01-02 12:21:00,SystemResetWarning,0833.4,5.01,000.00,022.3,021.2,000.0,030.7,023.7,12.9,0000.0,0008.61,0003.85,0003.52
2024-01-02 12:22:00,SystemResetWarning,0833.4,5.02,000.00,022.3,021.2,000.0,030.7,023.7,12.9,0000.0,0008.53,0003.80,0003.50
2024-01-02 12:23:00,SystemResetWarning,0833.4,5.00,000.00,022.3,021.2,000.0,030.7,023.6,12.9,0000.0,0008.53,0003.80,0003.48
2024-01-02 12:24:00,SystemResetWarning,0833.4,5.00,000.00,022.3,021.2,000.0,030.7,023.7,13.0,0000.0,0008.44,0003.80,0003.48
2024-01-02 12:25:00,SystemResetWarning,0833.4,5.00,000.00,022.3,021.2,000.0,030.7,023.7,13.0,0000.0,0008.00,0003.78,0003.48
2024-01-02 12:26:00,SystemResetWarning,0833.4,5.00,000.00,022.3,021.3,000.0,030.6,023.6,13.0,0000.0,0008.39,0003.77,0003.46
2024-01-02 12:27:00,SystemResetWarning,0833.4,5.00,000.00,022.3,021.3,000.0,030.6,023.6,13.0,0000.0,0008.14,0003.75,0003.45
2024-01-02 12:28:00,SystemResetWarning,0833.4,5.00,000.00,022.3,021.3,000.0,030.6,023.6,13.0,0000.0,0007.70,0003.75,0003.45
2024-01-02 12:29:00,SystemResetWarning,0833.4,4.99,000.00,022.3,021.3,000.0,030.6,023.6,13.0,0000.0,0007.72,0003.77,0003.46
2024-01-02 12:30:00,SystemResetWarning,0833.4,5.00,000.00,022.3,021.3,000.0,030.6,023.6,13.0,0000.0,0008.01,0003.81,0003.49
2024-01-02 12:31:00,SystemResetWarning,0833.4,5.00,000.00,022.2,021.2,000.0,030.6,023.6,13.0,0000.0,0008.11,0003.87,0003.51
2024-01-02 12:32:00,SystemResetWarning,0833.4,5.00,000.00,022.2,021.2,000.0,030.6,023.6,13.0,0000.0,0008.08,0003.86,0003.50
2024-01-02 12:33:00,SystemResetWarning,0833.3,5.00,000.00,022.2,021.2,000.0,030.6,023.6,13.0,0000.0,0007.98,0003.87,0003.51
2024-01-02 12:34:00,SystemResetWarning,0833.3,5.00,000.00,022.2,021.2,000.0,030.6,023.6,13.0,0000.0,0008.31,0003.89,0003.52
2024-01-02 12:35:00,SystemResetWarning,0833.3,5.00,000.00,022.2,021.2,000.0,030.6,023.6,13.0,0000.0,0008.93,0003.87,0003.52
2024-01-02 12:36:00,SystemResetWarning,0833.3,5.00,000.00,022.2,021.2,000.0,030.6,023.6,13.0,0000.0,0009.12,0003.86,0003.50
2024-01-02 12:37:00,SystemResetWarning,0833.3,5.01,000.00,022.2,021.2,000.0,030.6,023.6,13.0,0000.0,0008.64,0003.84,0003.49
2024-01-02 12:38:00,SystemResetWarning,0833.3,5.00,000.00,022.2,021.2,000.0,030.6,023.6,13.0,0000.0,0008.58,0003.81,0003.47
2024-01-02 12:39:00,SystemResetWarning,0833.3,5.00,000.00,022.2,021.2,000.0,030.6,023.6,13.0,0000.0,0008.64,0003.80,0003.46
2024-01-02 12:40:00,SystemResetWarning,0833.3,5.01,000.00,022.2,021.2,000.0,030.6,023.6,13.0,0000.0,0008.61,0003.77,0003.43
2024-01-02 12:41:00,SystemResetWarning,0833.3,5.00,000.00,022.2,021.2,000.0,030.5,023.6,13.1,0000.0,0008.30,0003.71,0003.39
2024-01-02 12:42:00,SystemResetWarning,0833.3,5.01,000.00,022.2,021.2,000.0,030.5,023.6,13.1,0000.0,0007.80,0003.66,0003.35
2024-01-02 12:43:00,SystemResetWarning,0833.3,5.00,000.00,022.2,021.2,000.0,030.5,023.5,13.1,0000.0,0007.45,0003.61,0003.32
2024-01-02 12:44:00,SystemResetWarning,0833.3,5.00,000.00,022.2,021.2,000.0,030.5,023.5,13.1,0000.0,0007.51,0003.60,0003.30
2024-01-02 12:45:00,SystemResetWarning,0833.3,5.00,000.00,022.2,021.2,000.0,030.5,023.5,13.1,0000.0,0007.16,0003.56,0003.27
2024-01-02 12:46:00,SystemResetWarning,0833.4,5.00,000.00,022.1,021.2,000.0,030.5,023.5,13.1,0000.0,0006.18,0003.55,0003.26
2024-01-02 12:47:00,SystemResetWarning,0833.4,5.00,000.00,022.1,021.2,000.0,030.5,023.5,13.1,0000.0,0006.16,0003.57,0003.26
2024-01-02 12:48:00,SystemResetWarning,0833.3,4.99,000.00,022.1,021.2,000.0,030.5,023.5,13.1,0000.0,0006.33,0003.59,0003.27
2024-01-02 12:49:00,SystemResetWarning,0833.4,5.00,000.00,022.1,021.2,000.0,030.5,023.5,13.1,0000.0,0006.48,0003.60,0003.26
2024-01-02 12:50:00,SystemResetWarning,0833.3,4.99,000.00,022.1,021.1,000.0,030.5,023.5,13.1,0000.0,0006.56,0003.59,0003.26
2024-01-02 12:51:00,SystemResetWarning,0833.3,4.99,000.00,022.1,021.1,000.0,030.5,023.5,13.1,0000.0,0006.81,0003.63,0003.27
2024-01-02 12:52:00,SystemResetWarning,0833.3,5.00,000.00,022.1,021.1,000.0,030.5,023.5,13.1,0000.0,0007.27,0003.66,0003.29
2024-01-02 12:53:00,SystemResetWarning,0833.4,5.00,000.00,022.1,021.1,000.0,030.5,023.5,13.1,0000.0,0007.41,0003.71,0003.30
2024-01-02 12:54:00,SystemResetWarning,0833.4,5.00,000.00,022.1,021.1,000.0,030.5,023.5,13.1,0000.0,0007.45,0003.73,0003.31
2024-01-02 12:55:00,SystemResetWarning,0833.4,5.00,000.00,022.1,021.0,000.0,030.5,023.5,13.1,0000.0,0007.45,0003.74,0003.31
2024-01-02 12:56:00,SystemResetWarning,0833.4,5.00,000.00,022.1,021.0,000.0,030.4,023.4,13.1,0000.0,0007.43,0003.74,0003.31
2024-01-02 12:57:00,SystemResetWarning,0833.4,5.00,000.00,022.1,021.0,000.0,030.4,023.4,13.1,0000.0,0008.18,0003.74,0003.31
2024-01-02 12:58:00,SystemResetWarning,0833.4,5.00,000.00,022.1,020.9,000.0,030.4,023.4,13.1,0000.0,0008.48,0003.72,0003.30
2024-01-02 12:59:00,SystemResetWarning,0833.4,5.00,000.00,022.1,020.9,000.0,030.4,023.4,13.1,0000.0,0008.93,0003.71,0003.29
